This is the latest recevied weather packets stored in our database for station/object K8MUD. If no packets are shown the sender has not sent any weather packets the latest 10 day(s).
| Time | Temp. | Humidity | Pressure | Rain* | Wind** | Luminosity | Snow |
|---|---|---|---|---|---|---|---|
| 1777572685 | 12.22° C | 47% | 1013.2 hPa | 0 mm | - | - | - |
| 1777572385 | 12.22° C | 46% | 1013.2 hPa | 0 mm | - | - | - |
| 1777572085 | 11.67° C | 47% | 1013.3 hPa | 0 mm | - | - | - |
| 1777571785 | 11.67° C | 47% | 1013.4 hPa | 0 mm | - | - | - |
| 1777571485 | 12.22° C | 47% | 1013.3 hPa | 0 mm | - | - | - |
| 1777571185 | 12.22° C | 47% | 1013.3 hPa | 0 mm | - | - | - |
| 1777570885 | 11.67° C | 49% | 1013.3 hPa | 0 mm | - | - | - |
| 1777570585 | 11.67° C | 48% | 1013.4 hPa | 0 mm | - | - | - |
| 1777570285 | 11.67° C | 49% | 1013.4 hPa | 0 mm | - | - | - |
| 1777569985 | 12.22° C | 50% | 1013.2 hPa | 0 mm | - | - | - |
| 1777569685 | 12.22° C | 48% | 1013.4 hPa | 0 mm | - | - | - |
| 1777569385 | 12.22° C | 47% | 1013.3 hPa | 0 mm | - | - | - |
| 1777569085 | 12.22° C | 49% | 1013.5 hPa | 0 mm | - | - | - |
| 1777568784 | 12.22° C | 49% | 1013.4 hPa | 0 mm | - | - | - |
| 1777568485 | 12.22° C | 49% | 1013.6 hPa | 0 mm | - | - | - |
| 1777568184 | 11.67° C | 53% | 1013.5 hPa | 0 mm | - | - | - |
| 1777567884 | 11.67° C | 50% | 1013.4 hPa | 0 mm | - | - | - |
| 1777567584 | 11.67° C | 49% | 1013.5 hPa | 0 mm | - | - | - |
| 1777567284 | 12.22° C | 51% | 1013.5 hPa | 0 mm | - | - | - |
| 1777566984 | 11.67° C | 51% | 1013.5 hPa | 0 mm | - | - | - |
| 1777566684 | 11.67° C | 49% | 1013.5 hPa | 0 mm | - | - | - |
| 1777566384 | 11.67° C | 51% | 1013.5 hPa | 0 mm | - | - | - |
| 1777566084 | 12.22° C | 49% | 1013.4 hPa | 0 mm | - | - | - |
| 1777565784 | 11.67° C | 52% | 1013.5 hPa | 0 mm | - | - | - |
| 1777565484 | 11.67° C | 51% | 1013.5 hPa | 0 mm | - | - | - |
* Rain latest hour (hover to see other rain measurements)
** Current wind speed in m/s (hover to see current wind gust speed)